| time (UTC) | temp F | wind direction | speed knots | gust knots | rain 1hr in | rain 24hr in | rain mn in | humidity % | barometer mb |
| 20260507003955 | 69 | 115 | 0.9 | 3.5 | 0.00 | 0.00 | 0.00 | 57 | 1018.5 |
| 20260507003554 | 69 | 122 | 0.9 | 5.2 | 0.00 | 0.00 | 0.00 | 57 | 1018.7 |
| 20260507002445 | 70 | 137 | 0.9 | 6.1 | 0.00 | 0.00 | 0.00 | 56 | 1018.7 |
| 20260507001936 | 70 | 113 | 1.7 | 6.1 | 0.00 | 0.00 | 0.00 | 56 | 1018.6 |
| 20260507001434 | 71 | 296 | 1.7 | 6.1 | 0.00 | 0.00 | 0.00 | 55 | 1018.7 |
| 20260507000942 | 71 | 124 | 0.9 | 5.2 | 0.00 | 0.00 | 0.00 | 55 | 1018.6 |
| 20260507000432 | 71 | 211 | 0.9 | 5.2 | 0.00 | 0.00 | 0.00 | 54 | 1018.6 |
| 20260506235930 | 71 | 129 | 0.9 | 5.2 | 0.00 | 0.00 | 0.00 | 55 | 1018.7 |
| 20260506235432 | 71 | 154 | 0.9 | 5.2 | 0.00 | 0.00 | 0.00 | 55 | 1018.7 |
| 20260506234930 | 71 | 82 | 0.9 | 2.6 | 0.00 | 0.00 | 0.00 | 54 | 1018.7 |
| 20260506234436 | 72 | 124 | 0.9 | 5.2 | 0.00 | 0.00 | 0.00 | 54 | 1018.8 |
| 20260506233932 | 72 | 127 | 1.7 | 6.1 | 0.00 | 0.00 | 0.00 | 54 | 1018.8 |
| 20260506233423 | 73 | 89 | 0.9 | 6.1 | 0.00 | 0.00 | 0.00 | 53 | 1019.0 |
| 20260506232925 | 73 | 96 | 0.9 | 5.2 | 0.00 | 0.00 | 0.00 | 53 | 1019.1 |
| 20260506232420 | 73 | 105 | 0.9 | 3.5 | 0.00 | 0.00 | 0.00 | 53 | 1019.0 |
| 20260506231923 | 73 | 134 | 0.9 | 5.2 | 0.00 | 0.00 | 0.00 | 52 | 1019.0 |
| 20260506231911 | 74 | 140 | 1.7 | 6.1 | 0.00 | 0.00 | 0.00 | 51 | 1019.2 |
| 20260506231530 | 73 | 123 | 0.9 | 6.1 | 0.00 | 0.00 | 0.00 | 52 | 1019.1 |
| 20260506230403 | 73 | 120 | 1.7 | 6.1 | 0.00 | 0.00 | 0.00 | 52 | 1019.2 |
| 20260506225905 | 73 | 117 | 0.9 | 5.2 | 0.00 | 0.00 | 0.00 | 53 | 1019.2 |
| 20260506225419 | 74 | 200 | 1.7 | 5.2 | 0.00 | 0.00 | 0.00 | 51 | 1019.4 |
| 20260506224909 | 74 | 204 | 1.7 | 5.2 | 0.00 | 0.00 | 0.00 | 51 | 1019.4 |
| 20260506224403 | 73 | 165 | 1.7 | 5.2 | 0.00 | 0.00 | 0.00 | 52 | 1019.3 |
| 20260506223914 | 73 | 103 | 1.7 | 5.2 | 0.00 | 0.00 | 0.00 | 53 | 1019.4 |
| 20260506223429 | 73 | 134 | 1.7 | 7.8 | 0.00 | 0.00 | 0.00 | 54 | 1019.4 |
| 20260506222918 | 73 | 110 | 1.7 | 7.8 | 0.00 | 0.00 | 0.00 | 53 | 1019.6 |
| 20260506222600 | 74 | 165 | 0.9 | 5.2 | 0.00 | 0.00 | 0.00 | 52 | 1019.8 |
| 20260506222444 | 74 | 145 | 1.7 | 4.3 | 0.00 | 0.00 | 0.00 | 51 | 1019.8 |
| 20260506221403 | 73 | 167 | 1.7 | 6.1 | 0.00 | 0.00 | 0.00 | 52 | 1019.8 |
| 20260506220906 | 73 | 210 | 2.6 | 6.1 | 0.00 | 0.00 | 0.00 | 53 | 1019.9 |
| 20260506220430 | 73 | 240 | 1.7 | 6.1 | 0.00 | 0.00 | 0.00 | 51 | 1019.9 |
| 20260506220321 | 73 | 124 | 1.7 | 6.1 | 0.00 | 0.00 | 0.00 | 52 | 1020.2 |
| 20260506220012 | 73 | 212 | 1.7 | 6.1 | 0.00 | 0.00 | 0.00 | 51 | 1019.9 |
| 20260506214902 | 73 | 129 | 0.9 | 4.3 | 0.00 | 0.00 | 0.00 | 52 | 1020.1 |
| 20260506214402 | 73 | 160 | 1.7 | 5.2 | 0.00 | 0.00 | 0.00 | 53 | 1020.1 |
| 20260506213900 | 72 | 79 | 2.6 | 7.0 | 0.00 | 0.00 | 0.00 | 53 | 1020.0 |
| 20260506213414 | 73 | 137 | 2.6 | 7.0 | 0.00 | 0.00 | 0.00 | 51 | 1020.2 |
| 20260506212904 | 74 | 163 | 1.7 | 6.1 | 0.00 | 0.00 | 0.00 | 51 | 1020.3 |
| 20260506212359 | 73 | 112 | 1.7 | 6.1 | 0.00 | 0.00 | 0.00 | 53 | 1020.4 |
| 20260506211904 | 73 | 75 | 1.7 | 6.1 | 0.00 | 0.00 | 0.00 | 52 | 1020.2 |
| 20260506211400 | 73 | 104 | 1.7 | 7.0 | 0.00 | 0.00 | 0.00 | 51 | 1020.4 |
| 20260506210858 | 73 | 144 | 1.7 | 7.0 | 0.00 | 0.00 | 0.00 | 52 | 1020.4 |
| 20260506210725 | 72 | 126 | 0.9 | 2.6 | 0.00 | 0.00 | 0.00 | 54 | 1020.5 |
| 20260506210453 | 73 | 141 | 0.9 | 3.5 | 0.00 | 0.00 | 0.00 | 52 | 1020.4 |
| 20260506205400 | 71 | 108 | 0.9 | 3.5 | 0.00 | 0.00 | 0.00 | 53 | 1020.3 |
| 20260506204857 | 71 | 170 | 1.7 | 6.1 | 0.00 | 0.00 | 0.00 | 54 | 1020.4 |
| 20260506204356 | 71 | 238 | 1.7 | 6.1 | 0.00 | 0.00 | 0.00 | 54 | 1020.4 |
| 20260506203856 | 71 | 91 | 0.9 | 4.3 | 0.00 | 0.00 | 0.00 | 54 | 1020.3 |
| 20260506203356 | 70 | 124 | 0.9 | 4.3 | 0.00 | 0.00 | 0.00 | 56 | 1020.3 |
| 20260506202850 | 71 | 95 | 0.9 | 5.2 | 0.00 | 0.00 | 0.00 | 54 | 1020.4 |
| 20260506202347 | 71 | 93 | 0.9 | 5.2 | 0.00 | 0.00 | 0.00 | 55 | 1020.4 |
| 20260506202253 | 70 | 141 | 0.9 | 5.2 | 0.00 | 0.00 | 0.00 | 56 | 1020.4 |
| 20260506202241 | 70 | 71 | 0.9 | 5.2 | 0.00 | 0.00 | 0.00 | 54 | 1020.5 |
| 20260506202138 | 70 | 117 | 0.9 | 5.2 | 0.00 | 0.00 | 0.00 | 56 | 1020.5 |
| 20260506200822 | 70 | 109 | 1.7 | 6.1 | 0.00 | 0.00 | 0.00 | 57 | 1020.6 |
| 20260506200441 | 71 | 259 | 0.9 | 5.2 | 0.00 | 0.00 | 0.00 | 54 | 1020.7 |
| 20260506195329 | 70 | 119 | 0.9 | 6.1 | 0.00 | 0.00 | 0.00 | 55 | 1020.7 |
| 20260506194836 | 69 | 121 | 0.9 | 4.3 | 0.00 | 0.00 | 0.00 | 57 | 1020.5 |
| 20260506194347 | 70 | 136 | 0.9 | 4.3 | 0.00 | 0.00 | 0.00 | 57 | 1020.6 |
| 20260506193831 | 69 | 228 | 1.7 | 4.3 | 0.00 | 0.00 | 0.00 | 57 | 1020.6 |
| 20260506193819 | 70 | 79 | 0.9 | 4.3 | 0.00 | 0.00 | 0.00 | 56 | 1020.8 |
| 20260506193457 | 69 | 146 | 1.7 | 6.1 | 0.00 | 0.00 | 0.00 | 57 | 1020.6 |
| 20260506191836 | 69 | 124 | 0.9 | 3.5 | 0.00 | 0.00 | 0.00 | 57 | 1020.7 |
| 20260506191325 | 69 | 200 | 0.9 | 5.2 | 0.00 | 0.00 | 0.00 | 57 | 1021.0 |
| 20260506190824 | 69 | 165 | 0.9 | 5.2 | 0.00 | 0.00 | 0.00 | 57 | 1021.0 |
| 20260506190328 | 69 | 85 | 0.9 | 4.3 | 0.00 | 0.00 | 0.00 | 57 | 1021.1 |
| 20260506185820 | 68 | 149 | 1.7 | 4.3 | 0.00 | 0.00 | 0.00 | 60 | 1020.9 |
| 20260506185314 | 68 | 127 | 0.9 | 4.3 | 0.00 | 0.00 | 0.00 | 58 | 1020.9 |
| 20260506184955 | 67 | 195 | 1.7 | 6.1 | 0.00 | 0.00 | 0.00 | 60 | 1020.7 |
| 20260506184842 | 68 | 124 | 0.9 | 6.1 | 0.00 | 0.00 | 0.00 | 58 | 1020.9 |
| 20260506183813 | 67 | 127 | 0.9 | 4.3 | 0.00 | 0.00 | 0.00 | 61 | 1020.7 |
| 20260506183319 | 66 | 163 | 0.9 | 4.3 | 0.00 | 0.00 | 0.00 | 60 | 1020.8 |
| 20260506182825 | 67 | 122 | 1.7 | 3.5 | 0.00 | 0.00 | 0.00 | 58 | 1020.7 |
| 20260506182315 | 67 | 126 | 0.9 | 4.3 | 0.00 | 0.00 | 0.00 | 59 | 1020.8 |
| 20260506181816 | 67 | 90 | 1.7 | 5.2 | 0.00 | 0.00 | 0.00 | 61 | 1020.8 |
| 20260506181438 | 66 | 67 | 0.9 | 5.2 | 0.00 | 0.00 | 0.00 | 61 | 1020.7 |
| 20260506181334 | 67 | 141 | 1.7 | 5.2 | 0.00 | 0.00 | 0.00 | 60 | 1020.8 |
| 20260506180316 | 65 | 131 | 0.0 | 2.6 | 0.00 | 0.00 | 0.00 | 61 | 1020.7 |
| 20260506175816 | 65 | 57 | 0.9 | 3.5 | 0.00 | 0.00 | 0.00 | 62 | 1020.8 |
| 20260506175306 | 65 | 112 | 0.9 | 3.5 | 0.00 | 0.00 | 0.00 | 61 | 1020.7 |
| 20260506174808 | 64 | 130 | 0.9 | 4.3 | 0.00 | 0.00 | 0.00 | 62 | 1020.7 |
| 20260506174303 | 65 | 261 | 0.9 | 4.3 | 0.00 | 0.00 | 0.00 | 63 | 1020.7 |
| 20260506173800 | 64 | 76 | 0.9 | 4.3 | 0.00 | 0.00 | 0.00 | 62 | 1020.4 |
| 20260506173301 | 64 | 164 | 0.9 | 4.3 | 0.00 | 0.00 | 0.00 | 63 | 1020.5 |
| 20260506172758 | 63 | 234 | 0.9 | 4.3 | 0.00 | 0.00 | 0.00 | 65 | 1020.4 |
| 20260506172527 | 62 | 214 | 0.9 | 5.2 | 0.00 | 0.00 | 0.00 | 66 | 1020.3 |
| 20260506172331 | 63 | 136 | 0.9 | 4.3 | 0.00 | 0.00 | 0.00 | 65 | 1020.4 |
| 20260506171234 | 62 | 62 | 1.7 | 5.2 | 0.00 | 0.00 | 0.00 | 64 | 1020.3 |
| 20260506170741 | 62 | 67 | 1.7 | 4.3 | 0.00 | 0.00 | 0.00 | 65 | 1020.2 |
| 20260506170247 | 62 | 84 | 0.9 | 3.5 | 0.00 | 0.00 | 0.00 | 65 | 1020.1 |
| 20260506170237 | 62 | 178 | 0.9 | 3.5 | 0.00 | 0.00 | 0.00 | 65 | 1020.3 |
| 20260506170218 | 61 | 160 | 0.9 | 3.5 | 0.00 | 0.00 | 0.00 | 66 | 1020.1 |
| 20260506165825 | 62 | 117 | 0.0 | 1.7 | 0.00 | 0.00 | 0.00 | 65 | 1020.3 |
| 20260506164229 | 61 | 248 | 0.0 | 3.5 | 0.00 | 0.00 | 0.00 | 68 | 1020.0 |
| 20260506163726 | 60 | 70 | 0.9 | 3.5 | 0.00 | 0.00 | 0.00 | 66 | 1019.9 |
| 20260506163223 | 61 | 139 | 0.9 | 3.5 | 0.00 | 0.00 | 0.00 | 66 | 1019.9 |
| 20260506162711 | 61 | 66 | 0.0 | 1.7 | 0.00 | 0.00 | 0.00 | 66 | 1019.8 |
| 20260506162151 | 60 | 165 | 0.0 | 2.6 | 0.00 | 0.00 | 0.00 | 69 | 1019.9 |
| 20260506161648 | 60 | 143 | 0.0 | 2.6 | 0.00 | 0.00 | 0.00 | 69 | 1019.8 |
| 20260506161143 | 60 | 137 | 0.0 | 2.6 | 0.00 | 0.00 | 0.00 | 69 | 1019.9 |
| 20260506160643 | 60 | 154 | 0.0 | 2.6 | 0.00 | 0.00 | 0.00 | 69 | 1019.8 |
| 20260506160135 | 60 | 105 | 0.9 | 1.7 | 0.00 | 0.00 | 0.00 | 71 | 1019.8 |
| 20260506155727 | 59 | 155 | 0.0 | 1.7 | 0.00 | 0.00 | 0.00 | 70 | 1019.8 |
| 20260506155131 | 59 | 136 | 0.0 | 1.7 | 0.00 | 0.00 | 0.00 | 71 | 1019.6 |
| 20260506154630 | 58 | 207 | 0.9 | 2.6 | 0.00 | 0.00 | 0.00 | 73 | 1019.4 |
| 20260506154427 | 58 | 196 | 0.9 | 2.6 | 0.00 | 0.00 | 0.00 | 72 | 1019.6 |
| 20260506154211 | 58 | 119 | 0.9 | 2.6 | 0.00 | 0.00 | 0.00 | 73 | 1019.6 |
| 20260506153126 | 58 | 214 | 0.9 | 2.6 | 0.00 | 0.00 | 0.00 | 73 | 1019.6 |
| 20260506152624 | 58 | 173 | 0.9 | 2.6 | 0.00 | 0.00 | 0.00 | 73 | 1019.6 |
| 20260506152116 | 58 | 220 | 0.0 | 1.7 | 0.00 | 0.00 | 0.00 | 70 | 1019.3 |
| 20260506151617 | 58 | 119 | 0.0 | 0.9 | 0.00 | 0.00 | 0.00 | 70 | 1019.4 |
| 20260506151109 | 57 | 207 | 0.0 | 0.9 | 0.00 | 0.00 | 0.00 | 72 | 1019.2 |
| 20260506150621 | 56 | 94 | 0.0 | 0.0 | 0.00 | 0.00 | 0.00 | 74 | 1019.1 |
| 20260506150609 | 57 | 172 | 0.0 | 0.0 | 0.00 | 0.00 | 0.00 | 73 | 1019.2 |
| 20260506145612 | 56 | 108 | 0.0 | 0.0 | 0.00 | 0.00 | 0.00 | 74 | 1019.1 |
| 20260506145059 | 56 | 81 | 0.0 | 1.7 | 0.00 | 0.00 | 0.00 | 75 | 1019.1 |
| 20260506144554 | 57 | 71 | 0.0 | 1.7 | 0.00 | 0.00 | 0.00 | 73 | 1019.2 |
| 20260506144057 | 56 | 162 | 0.0 | 0.0 | 0.00 | 0.00 | 0.00 | 73 | 1019.2 |
| 20260506143535 | 57 | 157 | 0.0 | 0.0 | 0.00 | 0.00 | 0.00 | 72 | 1019.3 |
| 20260506143027 | 57 | 23 | 0.0 | 0.0 | 0.00 | 0.00 | 0.00 | 72 | 1019.4 |
| 20260506142544 | 54 | 23 | 0.0 | 0.0 | 0.00 | 0.00 | 0.00 | 81 | 1018.9 |
| 20260506142533 | 56 | 23 | 0.0 | 0.0 | 0.00 | 0.00 | 0.00 | 75 | 1019.1 |
| 20260506141523 | 52 | 23 | 0.0 | 0.0 | 0.00 | 0.00 | 0.00 | 81 | 1018.5 |
| 20260506141011 | 51 | 23 | 0.0 | 0.0 | 0.00 | 0.00 | 0.00 | 84 | 1018.5 |
| 20260506140516 | 50 | 23 | 0.0 | 0.0 | 0.00 | 0.00 | 0.00 | 86 | 1018.3 |
| 20260506140011 | 49 | 23 | 0.0 | 0.0 | 0.00 | 0.00 | 0.00 | 86 | 1018.0 |
| 20260506135511 | 49 | 23 | 0.0 | 0.0 | 0.00 | 0.00 | 0.00 | 87 | 1017.7 |
| 20260506135010 | 48 | 23 | 0.0 | 0.0 | 0.00 | 0.00 | 0.00 | 87 | 1017.6 |
| 20260506134515 | 48 | 23 | 0.0 | 0.0 | 0.00 | 0.00 | 0.00 | 88 | 1017.6 |
| 20260506134011 | 48 | 23 | 0.0 | 0.0 | 0.00 | 0.00 | 0.00 | 88 | 1017.5 |
| 20260506133513 | 47 | 23 | 0.0 | 0.0 | 0.00 | 0.00 | 0.00 | 87 | 1017.4 |
| 20260506133009 | 47 | 23 | 0.0 | 0.0 | 0.00 | 0.00 | 0.00 | 87 | 1017.5 |
| 20260506132438 | 47 | 23 | 0.0 | 0.0 | 0.00 | 0.00 | 0.00 | 87 | 1017.5 |
| 20260506131930 | 47 | 23 | 0.0 | 0.0 | 0.00 | 0.00 | 0.00 | 87 | 1017.4 |
| 20260506131422 | 47 | 23 | 0.0 | 0.0 | 0.00 | 0.00 | 0.00 | 87 | 1017.3 |
| 20260506130917 | 47 | 23 | 0.0 | 0.0 | 0.00 | 0.00 | 0.00 | 87 | 1017.4 |
| 20260506130416 | 47 | 23 | 0.0 | 0.0 | 0.00 | 0.00 | 0.00 | 87 | 1017.3 |
| 20260506125916 | 47 | 23 | 0.0 | 0.0 | 0.00 | 0.00 | 0.00 | 86 | 1017.2 |
| 20260506125412 | 47 | 23 | 0.0 | 0.0 | 0.00 | 0.00 | 0.00 | 86 | 1017.2 |
| 20260506124922 | 47 | 23 | 0.0 | 0.0 | 0.00 | 0.00 | 0.00 | 86 | 1017.2 |
| 20260506123913 | 47 | 23 | 0.0 | 0.0 | 0.00 | 0.00 | 0.00 | 86 | 1017.1 |
| 20260506123402 | 47 | 23 | 0.0 | 0.0 | 0.00 | 0.00 | 0.00 | 86 | 1017.0 |
| 20260506122842 | 48 | 23 | 0.0 | 0.0 | 0.00 | 0.00 | 0.00 | 85 | 1017.1 |
| 20260506122342 | 48 | 23 | 0.0 | 0.0 | 0.00 | 0.00 | 0.00 | 85 | 1016.9 |
| 20260506121836 | 48 | 23 | 0.0 | 0.0 | 0.00 | 0.00 | 0.00 | 85 | 1016.9 |
| 20260506121746 | 48 | 23 | 0.0 | 0.0 | 0.00 | 0.00 | 0.00 | 84 | 1017.2 |
| 20260506120838 | 48 | 23 | 0.0 | 0.0 | 0.00 | 0.00 | 0.00 | 84 | 1017.1 |
| 20260506120339 | 48 | 23 | 0.0 | 0.0 | 0.00 | 0.00 | 0.00 | 84 | 1017.1 |
| 20260506115935 | 48 | 23 | 0.0 | 0.0 | 0.00 | 0.00 | 0.00 | 84 | 1017.0 |
| 20260506115452 | 48 | 23 | 0.0 | 0.0 | 0.00 | 0.00 | 0.00 | 83 | 1017.0 |
| 20260506114921 | 49 | 23 | 0.0 | 0.0 | 0.00 | 0.00 | 0.00 | 83 | 1017.0 |
| 20260506114337 | 49 | 23 | 0.0 | 0.0 | 0.00 | 0.00 | 0.00 | 82 | 1017.0 |
| 20260506113850 | 49 | 23 | 0.0 | 0.0 | 0.00 | 0.00 | 0.00 | 82 | 1016.7 |
| 20260506113323 | 49 | 23 | 0.0 | 0.0 | 0.00 | 0.00 | 0.00 | 82 | 1016.9 |
| 20260506112819 | 49 | 23 | 0.0 | 0.0 | 0.00 | 0.00 | 0.00 | 82 | 1017.0 |
| 20260506112310 | 49 | 23 | 0.0 | 0.0 | 0.00 | 0.00 | 0.00 | 82 | 1016.9 |
| 20260506111810 | 49 | 23 | 0.0 | 0.0 | 0.00 | 0.00 | 0.00 | 81 | 1016.9 |
| 20260506111310 | 49 | 23 | 0.0 | 1.7 | 0.00 | 0.00 | 0.00 | 82 | 1016.8 |
| 20260506111250 | 49 | 23 | 0.0 | 1.7 | 0.00 | 0.00 | 0.00 | 82 | 1016.9 |
| 20260506110754 | 49 | 13 | 0.0 | 1.7 | 0.00 | 0.00 | 0.00 | 82 | 1016.9 |
| 20260506105809 | 49 | 1 | 0.0 | 0.0 | 0.00 | 0.00 | 0.00 | 82 | 1017.1 |
| 20260506105311 | 49 | 6 | 0.0 | 0.0 | 0.00 | 0.00 | 0.00 | 82 | 1017.0 |
| 20260506104811 | 49 | 6 | 0.0 | 0.9 | 0.00 | 0.00 | 0.00 | 82 | 1017.1 |
| 20260506104255 | 50 | 16 | 0.0 | 0.9 | 0.00 | 0.00 | 0.00 | 82 | 1017.2 |
| 20260506103751 | 50 | 1 | 0.0 | 1.7 | 0.00 | 0.00 | 0.00 | 82 | 1017.1 |
| 20260506103352 | 49 | 1 | 0.0 | 0.9 | 0.00 | 0.00 | 0.00 | 82 | 1017.2 |
| 20260506103309 | 50 | 1 | 0.0 | 1.7 | 0.00 | 0.00 | 0.00 | 82 | 1017.2 |
| 20260506102237 | 50 | 1 | 0.0 | 0.0 | 0.00 | 0.00 | 0.00 | 83 | 1017.1 |
| 20260506101736 | 49 | 1 | 0.0 | 0.0 | 0.00 | 0.00 | 0.00 | 82 | 1017.0 |
| 20260506101232 | 49 | 347 | 0.0 | 0.0 | 0.00 | 0.00 | 0.00 | 82 | 1017.1 |
| 20260506100728 | 49 | 347 | 0.0 | 0.9 | 0.00 | 0.00 | 0.00 | 82 | 1017.1 |
| 20260506100309 | 49 | 344 | 0.0 | 0.0 | 0.00 | 0.00 | 0.00 | 83 | 1017.1 |
| 20260506100238 | 49 | 347 | 0.0 | 0.9 | 0.00 | 0.00 | 0.00 | 82 | 1017.1 |
| 20260506095222 | 49 | 344 | 0.0 | 0.0 | 0.00 | 0.00 | 0.00 | 83 | 1017.2 |
| 20260506094726 | 49 | 344 | 0.0 | 0.0 | 0.00 | 0.00 | 0.00 | 82 | 1017.2 |
| 20260506093711 | 50 | 25 | 0.0 | 0.0 | 0.00 | 0.00 | 0.00 | 83 | 1017.3 |
| 20260506093658 | 49 | 25 | 0.0 | 0.0 | 0.00 | 0.00 | 0.00 | 82 | 1017.2 |
| 20260506092717 | 49 | 25 | 0.0 | 0.0 | 0.00 | 0.00 | 0.00 | 82 | 1017.2 |
| 20260506092212 | 49 | 25 | 0.0 | 0.0 | 0.00 | 0.00 | 0.00 | 82 | 1017.2 |
| 20260506091713 | 49 | 25 | 0.0 | 0.0 | 0.00 | 0.00 | 0.00 | 82 | 1017.3 |
| 20260506091133 | 49 | 25 | 0.0 | 0.0 | 0.00 | 0.00 | 0.00 | 83 | 1017.2 |
| 20260506090637 | 49 | 25 | 0.0 | 0.0 | 0.00 | 0.00 | 0.00 | 82 | 1017.2 |
| 20260506090232 | 49 | 25 | 0.0 | 0.0 | 0.00 | 0.00 | 0.00 | 83 | 1017.6 |
| 20260506090203 | 49 | 25 | 0.0 | 0.0 | 0.00 | 0.00 | 0.00 | 82 | 1017.3 |
| 20260506085118 | 49 | 21 | 0.0 | 0.9 | 0.00 | 0.00 | 0.00 | 84 | 1017.5 |
| 20260506084638 | 49 | 24 | 0.0 | 0.0 | 0.00 | 0.00 | 0.00 | 83 | 1017.7 |
| 20260506084624 | 49 | 13 | 0.0 | 0.9 | 0.00 | 0.00 | 0.00 | 83 | 1017.6 |
| 20260506083612 | 49 | 26 | 0.0 | 0.0 | 0.00 | 0.00 | 0.00 | 84 | 1017.6 |
| 20260506083545 | 49 | 26 | 0.0 | 0.0 | 0.00 | 0.00 | 0.00 | 84 | 1017.7 |
| 20260506082651 | 49 | 51 | 0.0 | 0.0 | 0.00 | 0.00 | 0.00 | 84 | 1017.6 |
| 20260506082624 | 49 | 46 | 0.0 | 0.0 | 0.00 | 0.00 | 0.00 | 84 | 1017.6 |
| 20260506081620 | 49 | 51 | 0.0 | 0.0 | 0.00 | 0.00 | 0.00 | 84 | 1017.6 |
| 20260506081116 | 49 | 40 | 0.0 | 0.9 | 0.00 | 0.00 | 0.00 | 84 | 1017.7 |
| 20260506080606 | 50 | 40 | 0.0 | 0.9 | 0.00 | 0.00 | 0.00 | 85 | 1018.0 |
| 20260506080107 | 50 | 40 | 0.0 | 0.0 | 0.00 | 0.00 | 0.00 | 84 | 1017.9 |
| 20260506073104 | 50 | 56 | 0.0 | 0.9 | 0.00 | 0.00 | 0.00 | 82 | 1018.0 |
| 20260506072605 | 50 | 57 | 0.0 | 0.9 | 0.00 | 0.00 | 0.00 | 81 | 1018.0 |
| 20260506072107 | 50 | 57 | 0.0 | 0.9 | 0.00 | 0.00 | 0.00 | 82 | 1017.9 |
| 20260506071608 | 50 | 58 | 0.0 | 0.0 | 0.00 | 0.00 | 0.00 | 81 | 1017.7 |
| 20260506071105 | 50 | 58 | 0.0 | 0.9 | 0.00 | 0.00 | 0.00 | 80 | 1017.7 |
| 20260506070534 | 50 | 58 | 0.0 | 1.7 | 0.00 | 0.00 | 0.00 | 80 | 1017.7 |
| 20260506061516 | 51 | 21 | 0.0 | 0.0 | 0.00 | 0.00 | 0.00 | 79 | 1017.2 |
| 20260506061017 | 50 | 21 | 0.0 | 1.7 | 0.00 | 0.00 | 0.00 | 79 | 1017.2 |
| 20260506060511 | 50 | 21 | 0.0 | 1.7 | 0.00 | 0.00 | 0.00 | 80 | 1017.3 |
| 20260506050917 | 51 | 57 | 0.0 | 0.9 | 0.00 | 0.00 | 0.00 | 81 | 1017.0 |
| 20260506044904 | 51 | 71 | 0.0 | 0.0 | 0.00 | 0.00 | 0.00 | 81 | 1016.8 |
| 20260506044415 | 51 | 71 | 0.0 | 0.0 | 0.00 | 0.00 | 0.00 | 81 | 1016.8 |
| 20260506043907 | 51 | 71 | 0.0 | 0.0 | 0.00 | 0.00 | 0.00 | 80 | 1016.8 |
| 20260506043400 | 51 | 71 | 0.0 | 0.0 | 0.00 | 0.00 | 0.00 | 80 | 1016.8 |
| 20260506042837 | 51 | 71 | 0.0 | 0.0 | 0.00 | 0.00 | 0.00 | 80 | 1016.8 |
| 20260506042756 | 51 | 74 | 0.0 | 0.9 | 0.00 | 0.00 | 0.00 | 80 | 1016.5 |
| 20260506041815 | 51 | 74 | 0.0 | 0.9 | 0.00 | 0.00 | 0.00 | 80 | 1016.4 |
| 20260506041344 | 52 | 79 | 0.0 | 1.7 | 0.00 | 0.00 | 0.00 | 79 | 1016.4 |
| 20260506041328 | 51 | 74 | 0.0 | 0.9 | 0.00 | 0.00 | 0.00 | 80 | 1016.4 |
| 20260506040739 | 52 | 79 | 0.0 | 1.7 | 0.00 | 0.00 | 0.00 | 79 | 1016.4 |
| 20260506040247 | 52 | 85 | 0.0 | 0.0 | 0.00 | 0.00 | 0.00 | 79 | 1016.5 |
| 20260506040003 | 52 | 85 | 0.0 | 0.0 | 0.00 | 0.00 | 0.00 | 79 | 1016.3 |
| 20260506034302 | 53 | 85 | 0.0 | 0.0 | 0.00 | 0.00 | 0.00 | 78 | 1016.3 |
| 20260506033736 | 53 | 85 | 0.0 | 0.0 | 0.00 | 0.00 | 0.00 | 77 | 1016.3 |
| 20260506033231 | 53 | 85 | 0.0 | 0.0 | 0.00 | 0.00 | 0.00 | 77 | 1016.3 |
| 20260506032732 | 54 | 85 | 0.0 | 0.0 | 0.00 | 0.00 | 0.00 | 77 | 1016.3 |
| 20260506032650 | 54 | 85 | 0.0 | 0.0 | 0.00 | 0.00 | 0.00 | 76 | 1016.3 |
| 20260506031714 | 55 | 85 | 0.0 | 0.0 | 0.00 | 0.00 | 0.00 | 75 | 1016.3 |
| 20260506031206 | 55 | 85 | 0.0 | 0.0 | 0.00 | 0.00 | 0.00 | 73 | 1016.1 |
| 20260506030658 | 55 | 89 | 0.0 | 0.0 | 0.00 | 0.00 | 0.00 | 73 | 1016.1 |
| 20260506030347 | 55 | 89 | 0.0 | 0.0 | 0.00 | 0.00 | 0.00 | 73 | 1015.9 |
| 20260506030228 | 55 | 89 | 0.0 | 0.0 | 0.00 | 0.00 | 0.00 | 73 | 1015.9 |
| 20260506025230 | 56 | 151 | 0.0 | 0.9 | 0.00 | 0.00 | 0.00 | 71 | 1015.6 |
| 20260506025155 | 55 | 89 | 0.0 | 0.0 | 0.00 | 0.00 | 0.00 | 72 | 1015.9 |
| 20260506024822 | 55 | 89 | 0.0 | 1.7 | 0.00 | 0.00 | 0.00 | 72 | 1015.7 |
| 20260506024217 | 56 | 89 | 0.0 | 1.7 | 0.00 | 0.00 | 0.00 | 72 | 1015.7 |
| 20260506023850 | 56 | 92 | 0.0 | 1.7 | 0.00 | 0.00 | 0.00 | 72 | 1015.7 |
| 20260506023230 | 56 | 67 | 0.0 | 0.9 | 0.00 | 0.00 | 0.00 | 71 | 1015.6 |
| 20260506022736 | 56 | 219 | 0.0 | 0.9 | 0.00 | 0.00 | 0.00 | 71 | 1015.6 |
| 20260506022329 | 56 | 123 | 0.0 | 0.0 | 0.00 | 0.00 | 0.00 | 71 | 1015.7 |
| 20260506021943 | 56 | 124 | 0.0 | 0.0 | 0.00 | 0.00 | 0.00 | 71 | 1015.7 |
| 20260506015739 | 58 | 113 | 0.9 | 2.6 | 0.00 | 0.00 | 0.00 | 66 | 1015.6 |
| 20260506015603 | 56 | 111 | 0.0 | 2.6 | 0.00 | 0.00 | 0.00 | 70 | 1015.6 |
| 20260506015126 | 57 | 142 | 0.0 | 1.7 | 0.00 | 0.00 | 0.00 | 70 | 1015.7 |
| 20260506014702 | 57 | 147 | 0.0 | 2.6 | 0.00 | 0.00 | 0.00 | 70 | 1015.6 |
| 20260506014047 | 57 | 162 | 0.0 | 2.6 | 0.00 | 0.00 | 0.00 | 69 | 1015.6 |
| 20260506013859 | 58 | 121 | 0.0 | 1.7 | 0.00 | 0.00 | 0.00 | 64 | 1015.6 |
| 20260506013821 | 58 | 134 | 0.0 | 2.6 | 0.00 | 0.00 | 0.00 | 65 | 1015.5 |
| 20260506013754 | 59 | 117 | 0.0 | 4.3 | 0.00 | 0.00 | 0.00 | 64 | 1015.6 |
| 20260506013608 | 57 | 108 | 0.0 | 0.9 | 0.00 | 0.00 | 0.00 | 69 | 1015.6 |
| 20260506013253 | 57 | 96 | 0.0 | 0.9 | 0.00 | 0.00 | 0.00 | 68 | 1015.5 |
| 20260506012913 | 57 | 131 | 0.0 | 1.7 | 0.00 | 0.00 | 0.00 | 68 | 1015.6 |
| 20260506012533 | 57 | 91 | 0.0 | 1.7 | 0.00 | 0.00 | 0.00 | 67 | 1015.6 |
| 20260506012132 | 58 | 141 | 0.0 | 1.7 | 0.00 | 0.00 | 0.00 | 67 | 1015.4 |
| 20260506011054 | 58 | 140 | 0.9 | 2.6 | 0.00 | 0.00 | 0.00 | 66 | 1015.5 |
| 20260506005741 | 58 | 114 | 0.9 | 2.6 | 0.00 | 0.00 | 0.00 | 66 | 1015.6 |